Lapse_Rate
7.9 8.1 8.0 8.0 8.1 8.0 8.2 8.1 7.9 7.8 7.8 7.8 7.7 7.4 7.3 7.1 7.0 7.0 7.0 7.4 7.2 7.0 7.1 7.3 7.1 6.9 6.9 6.7 6.8 6.8 6.9 7.0 7.1 7.2 7.2 7.2 7.3 7.2 7.1 7.1 6.9 6.7 6.5 6.5 6.4 6.2 5.9 5.8 5.5
7.8 8.4 8.3 8.3 8.2 8.3 8.4 8.4 8.1 7.7 7.6 7.6 7.3 7.4 7.4 7.4 7.2 6.9 6.9 7.2 7.0 6.9 7.0 7.1 7.3 7.1 7.1 7.0 7.0 7.0 7.1 7.2 7.2 7.1 7.1 7.1 7.1 7.1 7.1 7.1 7.0 6.8 6.7 6.6 6.4 6.3 6.0 5.7 5.3
8.0 8.4 8.6 8.5 8.4 8.5 8.3 8.4 8.0 7.8 7.6 7.5 7.3 6.9 6.9 7.4 7.7 7.3 7.4 7.4 7.1 7.1 6.9 7.1 7.1 7.0 7.0 6.8 6.9 7.0 7.2 7.2 7.2 7.1 7.1 7.1 7.1 7.1 7.1 7.1 6.9 6.7 6.7 6.5 6.5 6.4 6.1 5.8 5.5
8.2 8.5 8.8 8.7 8.3 8.4 8.6 8.3 8.2 7.7 7.4 7.1 6.8 6.4 6.8 7.2 7.5 7.5 7.5 7.6 7.4 7.1 6.9 6.9 6.9 6.9 6.8 6.8 6.8 7.0 7.2 7.2 7.2 7.1 7.0 7.0 7.0 7.0 6.9 6.9 6.8 6.7 6.6 6.6 6.4 6.4 6.2 5.8 5.6
8.2 8.5 8.7 8.8 8.3 8.7 8.5 8.3 8.1 7.7 7.4 6.6 6.6 7.1 7.4 7.8 7.6 7.6 7.6 7.7 7.5 7.5 7.2 7.0 6.9 6.8 6.8 6.8 6.9 7.1 7.2 7.2 7.2 7.1 6.9 6.8 6.7 6.7 6.8 6.8 6.8 6.8 6.7 6.7 6.7 6.6 6.5 6.2 5.9
8.2 8.4 8.6 8.6 8.4 8.9 8.8 8.4 8.1 7.8 7.4 7.5 7.6 7.5 7.7 7.9 7.7 7.6 7.6 7.7 7.5 7.4 7.3 7.1 7.0 6.9 6.9 6.9 7.0 7.1 7.1 7.1 7.1 7.0 6.9 6.8 6.8 6.8 6.8 6.8 6.9 6.9 6.9 6.8 6.9 6.7 6.7 6.5 6.3
8.0 8.3 8.7 8.5 8.4 8.9 8.9 8.8 8.3 8.0 7.5 8.0 8.1 7.9 7.9 7.9 8.2 7.9 7.8 7.5 7.4 7.3 7.2 7.2 7.1 7.0 6.9 6.9 7.0 7.1 7.1 7.0 7.0 7.0 6.9 6.8 6.7 6.8 6.8 6.8 6.8 6.8 6.8 6.7 6.7 6.6 6.6 6.7 6.6
7.9 8.2 8.7 8.5 8.6 8.0 9.0 9.0 8.7 8.1 8.0 7.9 8.2 8.2 8.6 8.6 8.5 8.3 8.0 7.8 7.5 7.4 7.3 7.1 7.0 6.9 6.8 6.9 6.8 6.8 6.9 6.9 6.9 6.9 6.8 6.8 6.8 6.8 6.8 6.8 6.8 6.7 6.6 6.6 6.6 6.6 6.5 6.6 6.8
7.7 8.2 8.4 8.4 8.5 8.5 8.5 8.6 8.5 8.2 7.9 8.0 8.3 8.6 8.9 8.9 8.8 8.5 8.0 7.7 7.5 7.5 7.2 7.2 7.1 7.0 6.9 6.8 6.8 6.8 6.8 6.8 6.8 6.9 6.9 6.9 6.9 6.9 6.8 6.7 6.7 6.7 6.6 6.6 6.6 6.6 6.6 6.5 6.5
7.6 8.1 8.3 8.4 8.4 8.4 8.5 8.7 8.3 8.4 8.2 8.0 8.1 8.5 9.0 8.8 8.6 8.2 7.9 7.7 7.5 7.3 7.1 7.1 7.1 7.1 6.9 6.9 6.8 6.8 6.9 6.9 6.9 6.9 6.9 7.0 6.9 7.0 6.9 6.8 6.7 6.7 6.6 6.7 6.6 6.6 6.7 6.7 6.5
7.6 8.1 8.3 8.3 8.3 8.4 8.5 8.8 8.8 8.6 8.3 8.1 8.3 8.7 9.0 8.8 8.6 8.2 8.0 7.6 7.6 7.4 7.1 7.1 7.1 7.1 7.0 7.0 7.0 6.9 6.9 6.9 6.9 6.9 6.9 7.0 6.9 6.9 6.9 6.9 6.9 6.7 6.8 7.0 6.9 6.9 6.9 6.9 6.8
7.4 7.9 8.2 8.4 8.4 8.4 8.6 8.7 8.6 8.5 8.3 8.3 8.5 8.4 8.7 8.8 8.6 8.4 8.0 7.7 7.5 7.4 7.2 7.2 7.1 7.0 7.0 7.0 7.0 6.9 6.9 7.0 7.0 7.0 6.9 6.9 6.9 6.9 6.9 6.8 6.9 6.9 6.8 6.9 6.9 6.9 7.0 7.0 6.9
7.2 7.8 8.2 8.3 8.6 8.5 8.7 8.8 8.7 8.8 8.8 8.7 8.6 8.7 8.7 8.7 8.6 8.4 8.0 7.6 7.5 7.3 7.3 7.2 7.1 7.0 6.9 6.9 7.0 7.0 6.9 6.9 6.9 6.9 6.9 6.8 6.8 6.8 6.8 6.9 6.8 7.0 7.1 7.2 7.1 7.0 7.0 7.0 6.9
7.1 7.6 8.0 8.3 8.6 8.7 8.7 8.8 8.9 8.9 9.0 8.9 8.8 8.8 9.0 8.9 8.7 8.6 8.4 7.9 7.6 7.4 7.3 7.2 7.0 7.0 7.0 6.9 6.9 7.0 7.0 7.0 6.9 6.9 6.9 7.0 6.9 6.9 6.9 6.8 6.7 6.8 6.9 7.0 6.9 6.8 6.6 6.8 6.8
7.0 7.2 7.8 8.4 8.6 8.7 8.7 8.8 8.9 9.1 9.0 9.0 9.0 9.0 8.9 9.0 8.6 9.0 8.2 7.9 7.6 7.5 7.5 7.3 7.1 7.0 6.8 7.0 6.8 6.8 7.0 7.0 7.0 7.0 7.2 7.1 7.0 7.1 6.9 7.0 6.8 6.7 6.6 6.8 6.8 6.6 6.5 6.7 6.8
6.9 7.1 7.5 8.2 8.5 8.6 8.6 8.5 8.8 9.1 8.9 8.8 8.9 8.8 8.5 8.6 8.6 8.8 8.4 8.2 7.7 7.4 7.5 7.2 7.2 7.1 6.8 6.8 6.7 6.8 6.9 7.0 7.0 7.0 7.1 7.0 6.9 6.8 6.8 6.7 6.6 6.7 6.7 6.7 6.9 6.7 6.9 6.9 7.1
7.0 7.2 7.6 8.1 8.3 8.5 8.6 8.3 8.6 8.8 8.8 8.8 8.8 8.8 8.7 8.5 8.5 8.8 8.7 8.6 8.1 7.6 7.3 7.2 7.1 7.2 7.0 6.8 6.7 6.8 7.0 7.0 7.0 7.0 7.0 6.9 6.9 6.9 6.9 6.9 6.9 6.9 6.5 6.8 6.8 6.7 6.7 7.1 7.0
6.9 7.0 7.2 7.7 8.1 8.3 8.3 8.3 8.5 8.7 8.7 8.7 8.7 8.8 8.8 8.2 8.5 8.5 8.5 8.6 8.2 7.8 7.5 7.3 7.3 7.1 6.9 6.7 6.7 7.1 7.1 7.2 7.0 6.7 6.7 6.8 6.9 6.7 6.7 6.8 6.7 6.5 6.4 6.5 6.6 6.6 6.5 6.6 6.7
6.7 6.7 6.8 7.4 7.7 7.9 8.3 8.3 8.4 8.5 8.5 8.5 8.7 8.8 8.7 8.9 8.8 8.2 8.2 8.4 8.2 8.0 7.8 7.7 7.5 7.5 7.3 7.1 6.7 7.0 7.0 7.1 7.2 6.9 6.7 6.7 6.6 6.6 6.5 6.7 6.6 6.6 6.3 6.3 6.3 6.5 6.4 6.4 6.4
6.5 6.5 6.7 6.9 7.3 7.4 7.8 8.0 8.3 8.6 8.5 8.6 8.7 8.7 8.8 9.0 8.9 8.5 8.3 8.5 8.6 8.3 8.4 8.2 7.9 7.9 7.5 7.4 7.0 7.0 7.0 7.1 7.2 7.0 7.0 7.0 6.8 6.6 6.5 6.3 6.4 6.5 6.5 6.6 6.4 6.6 6.5 6.8 6.8
6.6 6.7 6.8 6.8 6.9 7.0 7.2 7.4 8.1 8.3 8.2 8.2 8.4 8.6 8.7 8.8 9.0 8.9 8.5 8.6 8.6 8.5 8.6 8.6 8.3 8.1 8.0 7.8 7.5 7.4 7.4 7.5 7.3 7.2 7.2 6.7 7.0 6.6 6.3 6.3 6.6 6.4 6.4 6.2 6.4 6.5 6.5 6.4 6.4
6.8 7.2 7.0 6.8 6.7 7.2 7.0 7.4 7.2 7.7 8.0 8.0 8.4 8.5 8.6 8.9 9.3 8.9 8.8 8.7 8.7 8.7 8.8 8.8 8.7 8.5 8.3 8.1 7.8 7.5 7.7 7.6 7.6 7.6 7.6 6.9 6.9 7.0 7.1 7.0 7.1 6.9 6.7 6.3 6.5 6.5 6.4 6.3 6.5
7.1 7.0 7.0 6.8 6.6 6.5 6.9 7.0 7.1 7.5 7.9 8.1 8.4 8.6 8.9 9.5 9.5 9.3 9.0 9.1 9.0 8.9 8.8 8.9 9.0 8.8 8.4 8.3 8.0 7.8 7.7 7.9 7.8 7.8 7.6 7.0 6.8 7.0 7.0 6.9 7.1 6.9 6.6 6.7 6.5 6.4 6.5 6.5 6.5
7.2 7.1 7.1 7.0 7.0 7.1 7.2 7.0 7.7 7.5 7.9 8.3 8.6 8.9 8.9 9.0 9.3 9.0 9.0 9.0 9.0 8.9 8.9 8.9 8.8 8.7 8.2 8.1 7.9 7.9 7.7 7.8 7.8 7.6 7.2 7.2 7.1 7.1 7.0 6.9 7.0 6.8 6.6 6.6 6.6 6.4 6.2 6.3 6.3
7.5 7.1 7.6 7.7 7.7 7.7 7.6 7.0 7.4 7.6 7.8 8.3 8.6 8.7 8.8 8.8 8.9 8.9 9.0 9.2 8.8 8.8 8.7 8.8 8.5 8.1 7.7 7.8 7.6 7.6 7.8 7.6 7.4 7.6 7.4 7.1 7.2 7.1 6.8 6.7 6.6 6.7 6.8 6.6 6.5 6.3 6.2 5.9 6.0
7.3 7.3 8.1 7.6 7.9 8.3 7.4 7.2 7.3 7.6 7.8 7.8 8.3 8.6 8.7 8.8 8.9 8.9 8.9 8.9 8.9 8.7 8.6 8.4 8.1 7.9 7.5 7.5 7.7 7.5 7.6 7.6 7.7 7.5 7.3 7.1 6.9 6.8 6.7 6.5 6.3 6.1 6.2 6.2 6.1 5.9 6.0 6.1 6.0
7.0 7.5 7.3 7.2 7.5 7.1 7.1 7.2 7.0 7.5 7.8 8.0 7.9 8.3 8.5 8.7 8.8 8.9 8.9 8.8 8.6 8.5 8.5 8.1 7.9 7.9 7.6 7.4 7.3 7.5 7.6 7.5 7.6 7.5 7.3 6.7 6.7 6.4 6.4 6.1 6.1 5.8 5.7 5.8 5.6 5.5 5.7 5.8 5.8
6.5 6.3 6.9 7.6 7.9 7.7 7.7 7.1 7.3 7.2 7.6 7.7 7.7 7.9 8.1 8.3 8.5 8.8 8.8 8.8 8.8 8.7 8.2 7.9 7.7 7.7 7.3 7.3 7.3 7.6 7.3 7.1 7.0 6.9 6.7 6.9 6.3 6.3 5.9 6.0 5.9 5.8 5.7 5.5 5.5 5.6 5.6 5.7 5.7
6.9 5.5 5.9 5.9 6.3 7.5 7.6 7.8 6.8 7.1 7.2 7.4 7.5 7.7 7.9 8.2 8.3 8.4 8.4 8.7 8.8 8.7 8.3 8.2 7.7 7.5 7.3 7.2 7.4 7.2 6.9 6.9 6.7 6.4 6.5 6.3 6.8 6.2 6.0 5.8 5.8 5.7 5.6 5.6 5.7 5.7 5.5 5.7 5.8
4.8 4.5 4.8 4.9 6.0 4.6 4.7 5.8 6.6 7.3 7.0 7.0 7.5 7.5 7.7 8.0 8.3 8.4 8.6 8.6 8.8 8.6 8.5 8.3 8.0 7.7 7.5 7.4 7.6 7.6 6.8 6.7 6.5 6.3 6.1 6.2 6.2 6.1 5.6 5.5 5.6 5.6 5.6 5.7 5.5 5.6 5.7 5.8 5.9
Wind_Speed
4 3 1 3 2 2 0 2 2 0 3 2 10 3 5 4 0 1 2 7 15 18 21 20 17 16 18 18 18 17 16 16 17 18 18 17 17 16 15 14 14 14 14 13 13 12 12 11 10
6 2 1 1 0 2 2 1 5 1 5 4 7 3 2 1 3 8 11 8 16 17 18 17 16 17 18 18 18 18 17 17 17 17 17 16 16 15 14 14 13 13 12 12 11 10 9 9 7
5 1 2 2 1 1 3 4 4 2 5 6 2 5 4 4 2 11 4 15 18 16 17 17 17 17 17 18 18 18 18 17 16 16 16 15 14 13 13 12 11 11 10 10 9 7 7 6 4
1 2 2 2 2 0 3 6 1 6 4 3 4 4 3 6 5 3 14 17 16 15 16 17 17 17 17 17 17 18 18 17 16 14 14 13 12 11 10 10 9 8 8 7 7 6 5 4 3
2 0 2 1 3 2 3 5 3 7 2 3 2 3 3 3 5 13 15 14 15 14 15 17 16 17 17 17 16 17 17 16 15 14 13 12 10 9 8 8 7 6 6 5 4 3 3 2 1
1 1 1 1 3 4 5 3 5 3 3 3 4 5 4 3 8 11 14 15 15 14 15 14 14 15 15 16 16 16 15 15 14 13 12 11 9 8 6 5 4 3 2 2 0 1 1 1 2
1 0 2 2 3 3 1 2 7 4 1 2 4 6 1 7 9 12 13 13 14 15 14 13 13 13 14 15 15 15 14 13 13 11 10 10 9 7 5 3 2 2 2 3 4 5 4 6 5
3 1 3 3 0 4 2 5 5 3 3 1 4 4 5 9 14 13 14 13 13 12 13 13 13 14 13 13 13 13 13 13 12 11 10 9 7 5 4 3 4 4 5 6 7 8 8 8 9
2 3 2 2 2 6 3 5 5 5 4 2 3 1 4 18 14 14 14 13 12 11 12 13 13 13 12 12 13 13 12 11 10 10 10 8 7 6 5 3 4 6 8 8 9 10 10 9 11
4 4 3 2 2 5 6 4 3 6 7 6 6 8 14 17 17 17 16 15 16 15 14 12 12 12 12 11 11 11 11 11 10 10 9 8 7 6 5 5 6 8 10 11 10 12 11 10 6
4 8 4 3 5 2 1 3 4 5 8 7 11 13 15 17 16 16 16 16 17 15 12 13 12 13 12 11 11 10 10 10 10 10 9 7 7 6 7 6 5 6 5 7 8 9 8 7 8
5 6 3 2 3 1 3 0 4 8 4 3 9 17 18 17 18 18 16 15 14 14 14 13 13 11 13 12 11 10 9 10 9 9 10 8 7 6 7 6 5 6 5 7 8 9 9 10 9
5 3 4 4 5 6 4 7 7 11 9 6 8 18 20 18 17 15 14 13 12 14 15 14 14 12 11 10 11 11 9 11 10 8 10 10 7 6 7 6 6 6 7 9 9 8 8 9 9
3 3 3 5 4 4 5 2 3 8 13 10 14 16 19 20 19 15 15 15 16 15 16 15 16 13 14 11 11 8 11 10 10 9 8 10 9 8 7 5 5 5 6 8 8 6 6 6 7
1 3 3 6 4 5 7 4 7 2 7 11 15 15 17 19 17 20 19 18 17 14 15 18 17 15 14 13 11 10 10 9 8 8 8 10 9 9 9 5 4 5 6 6 6 7 6 6 5
2 1 8 6 5 1 9 16 11 4 6 9 12 14 17 20 24 19 18 17 15 16 17 16 14 16 15 13 10 9 8 8 7 6 7 8 10 10 8 5 4 5 6 4 3 3 4 4 5
2 5 4 4 1 2 8 8 6 4 7 8 14 16 17 18 19 20 20 18 17 18 16 16 15 15 14 11 9 9 7 7 5 5 5 7 9 10 7 5 4 4 3 0 1 2 2 3 4
3 3 3 6 3 2 3 10 13 10 7 12 13 17 18 19 23 22 20 18 17 17 17 15 14 14 13 9 7 5 4 3 3 1 1 2 5 7 7 5 4 4 4 3 3 3 2 2 3
2 4 9 8 9 7 14 12 13 11 10 13 13 16 19 20 21 15 15 15 16 16 16 17 16 15 12 10 9 6 5 4 3 4 5 5 8 11 11 6 5 5 3 3 1 2 3 2 4
5 7 11 9 6 5 11 15 15 12 10 10 15 16 21 23 19 15 15 13 14 15 17 17 17 17 13 10 9 4 6 3 4 5 7 8 10 11 10 8 5 4 4 4 3 1 0 2 4
7 11 7 9 5 10 12 13 10 5 6 9 13 15 16 22 23 18 16 14 12 14 17 16 17 17 15 14 9 8 7 5 4 5 5 6 9 11 10 9 7 6 5 4 4 4 4 3 3
10 9 11 9 4 6 2 8 10 9 8 10 12 13 15 19 18 17 13 13 12 13 13 16 16 16 15 17 14 16 11 10 5 7 6 7 10 10 11 11 11 8 5 6 5 6 5 3 4
5 2 6 7 8 7 12 7 9 4 7 10 10 13 15 16 16 15 14 11 8 9 11 12 14 15 15 16 14 12 10 7 9 8 10 9 9 11 11 12 11 7 5 6 7 6 5 4 3
4 10 6 2 4 11 16 12 12 12 11 10 8 10 12 14 15 14 12 10 10 10 10 11 13 12 14 14 15 14 15 14 12 11 10 9 9 8 9 11 10 9 7 6 6 5 6 5 4
7 7 6 6 8 14 8 8 12 7 13 13 13 12 12 13 14 15 17 16 14 13 11 12 13 12 12 13 13 13 14 15 15 15 10 11 9 8 7 8 7 6 7 6 5 5 6 5 5
12 6 6 11 10 13 1 9 10 11 12 10 10 13 9 12 15 18 20 17 14 13 11 11 11 9 12 15 14 12 14 10 10 10 9 8 9 8 8 8 9 8 7 6 5 4 4 4 4
3 5 10 11 15 11 12 16 12 12 14 11 14 16 14 13 16 21 15 14 13 13 12 13 13 11 12 15 13 13 10 11 10 12 11 9 9 8 8 9 8 8 7 5 4 4 4 3 3
7 10 4 5 9 18 12 11 10 11 17 19 22 21 21 18 13 12 13 14 13 14 10 12 12 15 15 15 14 12 13 13 14 13 13 12 9 9 10 9 8 6 6 4 3 3 3 3 3
10 3 5 4 5 9 16 11 5 11 15 18 21 21 21 20 12 10 10 12 12 13 12 15 16 18 16 15 15 15 14 14 13 11 11 12 13 10 9 9 9 7 5 4 4 4 4 2 1
9 7 7 4 6 5 5 8 9 12 16 17 22 21 19 19 11 6 9 12 14 18 18 17 17 17 17 17 17 18 16 15 14 11 9 9 10 9 9 9 8 6 5 5 4 3 3 2 1
Wind_Direction
79 156 193 237 223 273 176 75 315 188 164 340 149 154 208 43 120 53 142 148 152 153 156 155 151 142 129 124 122 120 118 119 119 120 122 123 122 124 121 118 117 116 118 117 116 115 111 106 104
122 122 189 339 342 145 291 182 194 176 32 53 128 42 62 70 96 115 135 169 153 148 151 149 145 138 130 127 126 127 125 123 125 126 127 128 129 129 128 126 125 121 117 120 120 118 113 110 108
132 284 307 20 74 99 266 257 266 57 79 39 86 51 8 8 48 151 135 154 146 148 150 144 145 138 131 131 130 130 129 129 131 132 133 132 133 133 131 128 129 127 125 123 122 120 114 107 100
164 159 111 318 218 259 283 329 43 115 88 67 90 98 93 13 142 148 139 149 142 147 148 142 144 140 135 135 134 135 136 136 137 137 137 139 138 137 136 136 136 133 128 126 123 118 101 82 66
52 71 4 61 253 284 292 303 163 111 39 48 13 99 78 41 93 135 141 150 147 145 151 149 150 145 144 142 142 143 143 143 144 146 147 143 144 149 150 149 147 138 133 132 128 124 111 88 5
109 310 153 298 291 295 297 265 158 119 346 65 120 129 136 118 145 143 146 152 151 149 155 153 157 150 149 145 149 150 149 148 151 155 154 152 160 166 166 161 153 156 153 145 206 264 300 269 286
121 104 138 256 328 306 276 183 184 130 221 149 138 157 141 190 155 150 150 151 152 155 160 162 164 161 157 155 156 156 153 158 160 163 160 165 171 178 181 189 204 242 303 304 301 307 312 304 298
116 141 178 221 67 49 84 176 119 154 182 135 201 184 186 162 152 151 155 155 158 163 167 169 172 171 173 163 161 160 163 170 172 172 177 177 182 195 209 230 234 287 291 293 299 307 307 303 306
161 227 225 205 272 7 39 210 146 144 157 203 176 249 100 134 142 153 156 160 167 174 177 176 180 180 180 172 166 166 173 178 181 187 190 188 197 197 217 243 278 281 288 293 299 297 294 298 281
192 233 223 198 239 357 324 260 192 183 173 202 173 90 131 143 161 166 176 177 180 182 183 185 188 186 183 179 174 179 179 188 193 197 194 203 208 211 236 256 271 280 282 284 285 286 291 279 308
164 235 193 221 254 269 299 229 197 225 214 212 200 152 161 161 175 184 193 191 185 182 182 190 191 188 189 190 182 185 190 194 202 204 205 206 217 221 233 251 250 263 277 293 302 299 298 306 305
207 241 198 150 189 214 275 122 239 228 234 288 217 160 166 179 186 195 197 192 190 190 189 189 190 189 195 197 192 190 196 199 202 207 212 213 228 227 243 249 262 264 279 301 298 300 298 295 292
221 215 198 245 256 260 281 254 267 244 194 133 169 160 176 190 198 200 199 195 196 197 192 193 193 192 194 204 197 199 200 205 208 206 213 218 229 239 243 260 270 286 304 301 295 292 294 298 298
203 202 280 278 241 239 247 310 211 262 177 154 168 189 185 195 201 201 200 200 201 202 197 195 199 194 195 202 202 201 205 209 213 219 220 222 233 241 245 244 257 268 270 288 289 289 293 295 299
87 263 273 230 241 235 184 242 225 214 169 191 186 195 195 202 204 213 207 205 201 203 201 199 197 195 199 201 198 208 211 207 216 223 224 227 232 238 246 243 239 243 267 272 271 279 288 284 284
171 217 240 216 201 193 205 252 235 203 177 207 213 201 203 203 213 216 216 213 203 204 205 203 201 197 199 198 194 203 214 215 221 226 228 225 234 233 234 246 254 262 264 264 291 324 299 306 314
44 246 215 261 285 223 217 238 252 359 207 222 228 216 206 209 217 221 218 213 206 206 203 204 205 205 200 196 197 199 215 230 225 229 233 227 230 233 235 255 261 217 210 328 342 359 335 299 315
247 246 209 242 105 20 256 266 278 288 281 267 227 228 222 212 216 216 215 214 210 206 204 201 200 203 193 186 182 185 186 197 208 159 257 228 192 196 170 144 149 149 150 142 170 216 227 268 320
251 268 273 267 268 296 277 267 269 274 249 257 231 221 228 229 222 219 212 208 207 205 199 199 192 192 182 182 174 178 181 171 144 131 146 134 138 147 138 142 147 154 142 142 168 290 292 291 345
211 264 269 288 280 240 273 279 283 277 260 248 241 218 225 231 221 217 213 207 203 202 199 194 193 186 187 185 181 164 166 156 137 131 126 137 136 131 138 141 141 137 129 130 141 194 261 28 21
239 254 258 275 299 250 272 265 259 241 259 264 256 250 235 233 236 222 206 207 208 211 203 199 193 185 181 179 155 134 120 122 130 121 102 102 116 111 119 120 119 107 100 90 62 57 57 43 66
272 223 250 265 267 269 320 282 259 265 259 251 258 244 238 228 231 240 223 209 206 211 206 200 193 185 180 171 174 170 175 166 160 141 132 120 117 117 117 114 111 112 109 102 85 66 59 31 49
272 221 276 277 259 282 254 256 263 240 251 259 248 233 232 228 219 226 224 220 204 196 194 188 183 180 175 177 175 171 168 153 140 138 134 126 113 117 119 117 113 109 108 97 85 75 65 70 65
291 292 271 246 250 254 258 235 256 243 250 259 253 256 241 228 218 214 206 187 192 177 171 167 163 169 174 172 169 169 161 151 147 151 144 142 131 127 122 110 105 103 98 92 92 95 81 80 79
252 274 283 262 238 262 284 251 250 254 249 250 266 272 251 240 224 214 204 194 185 176 162 155 159 157 165 163 167 167 160 158 155 156 156 147 137 133 126 121 120 109 101 90 88 86 81 62 61
295 249 258 271 272 286 347 259 258 223 254 261 258 262 261 234 229 225 217 201 179 167 159 158 145 133 152 155 149 152 150 151 153 155 148 149 137 136 131 116 109 103 100 95 92 86 81 88 83
23 242 338 281 270 276 260 264 261 247 245 269 319 320 288 251 224 224 221 199 175 156 150 154 153 153 155 147 137 140 145 147 148 149 143 137 131 132 126 126 122 114 111 110 119 106 118 104 83
18 335 285 235 270 260 250 261 267 22 7 3 0 346 330 314 274 245 209 184 163 143 144 154 156 165 161 147 147 150 154 153 150 152 147 142 136 139 136 133 119 120 121 120 121 136 110 88 51
328 354 347 281 306 279 276 266 90 46 11 359 353 350 343 327 288 230 198 159 150 148 161 163 165 161 159 154 150 150 154 153 151 155 152 147 143 147 145 138 138 144 132 120 125 119 126 113 86
69 43 33 347 313 294 274 254 142 39 356 349 341 345 347 337 311 239 174 163 167 172 173 175 169 167 163 157 158 158 153 156 147 146 154 156 139 152 152 150 143 132 133 134 140 142 141 175 276